Regional Weather Roundup
Issued by NWS Sterling, VA

Home | Current Version | Previous Version | Graphics & Text | Print | Product List | Glossary On
Versions: 1 2 3 4 5 6 7 8 9 10 11 12 13 14 15 16 17 18 19 20 21 22 23 24 25 26 27 28 29 30 31 32 33 34 35 36 37 38 39 40 41 42 43 44 45 46 47 48 49
000
ASUS41 KLWX 251810
RWRLWX

REGIONAL WEATHER ROUNDUP
NATIONAL WEATHER SERVICE BALTIMORE MD/WASHINGTON DC
200 PM EDT SAT APR 25 2015

Note: "FAIR" indicates few or no clouds below 12,000 feet
with no significant weather and/or obstructions to visibility.
 TC=TEMPERATURE CELSIUS

 * =Non NWS site. Station does not report precipitation (e.g. rain,
    snow, etc.), thunder, or fog.

DCZ001-MDZ009-015-VAZ040>042-051-053>054-251900-
WASHINGTON METRO

CITY           SKY/WX    TMP DP  RH WIND       PRES   REMARKS
WASHINGTON NAT CLOUDY    52  33  48 SW5       29.88F
DULLES         CLOUDY    49  21  33 CALM      29.88F
ANDREWS AFB    PTSUNNY   49  33  52 SW6       29.86F
FT BELVOIR     CLOUDY    50  31  47 S6        29.89F
QUANTICO       CLOUDY    50  27  40 SW7       29.90F
COLLEGE PARK*  CLOUDY    50  30  46 SW3       29.88F
LEESBURG*      CLOUDY    50  27  40 SW6       29.89F
MANASSAS*      CLOUDY    50  23  34 SW8       29.89F
GAITHERSBURG*  PTSUNNY   48  21  34 SW5       29.90F

$$

MDZ006>007-011-014-251900-
BALTIMORE METRO

CITY           SKY/WX    TMP DP  RH WIND       PRES   REMARKS
BWI AIRPORT    PTSUNNY   51  29  42 NW5       29.87F
MD SCIENCE CTR   N/A     51  26  37 MISG      29.89F
MARTIN STATE   CLOUDY    52  28  40 S7        29.90F
ANNAPOLIS      CLOUDY    50  35  56 SE6       29.88F
FORT MEADE*    CLOUDY    50  30  46 CALM      29.91S

$$

MDZ012-015-019>023-251900-
MARYLAND EASTERN SHORE

CITY           SKY/WX    TMP DP  RH WIND       PRES   REMARKS
OCEAN CITY     CLOUDY    48  31  51 VRB5      29.89F
SALISBURY      CLOUDY    49  28  44 SW6       29.88F
BAY BRIDGE AP*   N/A    N/A N/A N/A S7        29.90S
CAMBRIDGE*     CLOUDY    52  32  46 S5        29.88F
EASTON*        MOSUNNY   50  32  50 SW6       29.93F

$$

MDZ017>025-251900-
SOUTHERN MARYLAND

CITY           SKY/WX    TMP DP  RH WIND       PRES   REMARKS
PATUXENT RIVER LGT RAIN  50  37  61 VRB3      29.88F
ST INIGOES     LGT RAIN  49  41  74 S5        29.88F
LEONARDTOWN*   CLOUDY    50  34  53 SW6       29.90F

$$

MDZ003>005-251900-
NORTH CENTRAL MARYLAND

CITY           SKY/WX    TMP DP  RH WIND       PRES   REMARKS
FREDERICK*     CLOUDY    50  19  29 CALM      29.91F
HAGERSTOWN APT PTSUNNY   49  25  39 VRB7      29.86F
WESTMINSTER*   PTSUNNY   46  16  29 SW5       29.87F

$$

MDZ501>502-251900-
WESTERN MARYLAND

CITY           SKY/WX    TMP DP  RH WIND       PRES   REMARKS
OAKLAND*       CLOUDY    43  25  49 SE7       29.78F
CUMBERLAND*    MOSUNNY   50  30  46 SE3       29.89F

$$

VAZ025>031-251900-
SHENANDOAH VALLEY

CITY           SKY/WX    TMP DP  RH WIND       PRES   REMARKS
WINCHESTER*    CLOUDY    50  18  27 SE5       29.85F
FRONT ROYAL*   CLOUDY    48  23  37 CALM      29.85F
LURAY*         CLOUDY    50  30  46 CALM      29.85F
NEW MARKET*    CLOUDY    47  25  41 NE6       29.85F
STAUNTON*      DRIZZLE   46  32  59 S5        29.86F
WAYNESBORO*    CLOUDY    40  34  77 E9        29.86F

$$

WVZ021-048>050-054>055-251900-
EASTERN WEST VIRGINIA PANHANDLE

CITY           SKY/WX    TMP DP  RH WIND       PRES   REMARKS
MARTINSBURG    CLOUDY    50  27  40 SW5       29.87F
PETERSBURG*    CLOUDY    47  24  40 CALM      29.85F

$$

VAZ036>039-050-251900-
CENTRAL FOOTHILLS

CITY           SKY/WX    TMP DP  RH WIND       PRES   REMARKS
CHARLOTTESVILL CLOUDY    47  30  51 S6        29.88F
CULPEPER*      CLOUDY    48  25  40 CALM      29.89F
ORANGE*        CLOUDY    50  28  43 CALM      29.91S
GORDONSVILLE*  CLOUDY    48  28  45 SW6       29.88F
WARRENTON*     CLOUDY    49  28  45 S3        29.89F

$$

VAZ055>057-251900-
NORTH AND CENTRAL PIEDMONT

CITY           SKY/WX    TMP DP  RH WIND       PRES   REMARKS
FREDERICKSBRG* LGT RAIN  49  33  53 CALM      29.89F
STAFFORD*      CLOUDY    47  32  55 CALM      29.94F

$$

NCZ024-NYZ072-PAZ021-071-VAZ022-071-251900-
OTHER REGIONAL OBSERVATIONS

CITY           SKY/WX    TMP DP  RH WIND       PRES   REMARKS
NEW YORK CITY  SUNNY     56  21  25 W8G21     29.81F
PHILADELPHIA   PTSUNNY   54  23  30 SW9       29.85F
PITTSBURGH     CLOUDY    47  29  49 SE7       29.82F
ROANOKE        LGT RAIN  45  38  76 SE5       29.87F
RICHMOND       LGT RAIN  49  40  71 CALM      29.89F
RALEIGH        LGT RAIN  56  54  93 SW7       29.83S FOG

$$

ANZ530>537-251900-
MARINE OBSERVATIONS

STATION/POSITION TIME  TEMP    WIND        PRES
                       AIR SEA DIR/SP/G
                 (UTC) (F)     (DEG/KT/KT) (MB)
THOMAS PT LIGHT  1800   47 52  180/  8/ 10 1012.4F
BALT KEY BRIDGE  1700   47     320/  8/  8 1012.6F
COVE POINT       1700   46     200/  7/  8 1013.5F
LEWISETTA        1700   49 56              1012.6F
SOLOMONS ISLAND  1700      55                N/A
PINEY POINT      1700          150/  7/  8   N/A

$$



USA.gov is the U.S. government's official web portal to all federal, state and local government web resources and services.